| time (UTC) | temp F | wind direction | speed MPH | gust MPH | rain 1hr in | rain 24hr in | rain mn in | humidity % | barometer mb |
| 20260831151709 | 68 | 135 | 0.0 | 0.0 | 0.19 | 0.00 | 0.60 | 98 | 1019.0 |
| 20260831151209 | 68 | 106 | 0.0 | 0.0 | 0.24 | 0.00 | 0.60 | 98 | 1019.0 |
| 20260831150709 | 68 | 195 | 0.0 | 0.0 | 0.29 | 0.00 | 0.60 | 98 | 1019.0 |
| 20260831150209 | 68 | 172 | 0.0 | 0.0 | 0.30 | 0.00 | 0.60 | 98 | 1019.0 |
| 20260831145710 | 68 | 286 | 0.0 | 0.0 | 0.30 | 0.00 | 0.59 | 98 | 1019.0 |
| 20260831145210 | 68 | 88 | 0.0 | 0.0 | 0.30 | 0.00 | 0.59 | 98 | 1019.0 |
| 20260831144710 | 67 | 159 | 0.0 | 0.0 | 0.34 | 0.00 | 0.59 | 98 | 1019.0 |
| 20260831144209 | 67 | 106 | 0.0 | 0.0 | 0.33 | 0.00 | 0.58 | 98 | 1019.0 |
| 20260831143710 | 67 | 81 | 0.0 | 0.0 | 0.33 | 0.00 | 0.58 | 98 | 1019.0 |
| 20260831143210 | 67 | 96 | 0.0 | 0.0 | 0.33 | 0.00 | 0.57 | 98 | 1019.0 |
| 20260831142710 | 67 | 100 | 0.0 | 0.0 | 0.35 | 0.00 | 0.56 | 98 | 1019.0 |
| 20260831142210 | 67 | 3 | 0.0 | 0.0 | 0.30 | 0.00 | 0.50 | 98 | 1019.0 |
| 20260831141711 | 67 | 97 | 0.0 | 0.0 | 0.22 | 0.00 | 0.41 | 98 | 1019.0 |
| 20260831141211 | 67 | 97 | 0.0 | 0.0 | 0.17 | 0.00 | 0.35 | 98 | 1019.0 |
| 20260831140709 | 67 | 149 | 0.0 | 0.0 | 0.16 | 0.00 | 0.31 | 98 | 1019.0 |
| 20260831140211 | 67 | 88 | 0.0 | 0.0 | 0.17 | 0.00 | 0.30 | 98 | 1019.0 |
| 20260831135711 | 67 | 210 | 0.0 | 0.0 | 0.16 | 0.00 | 0.29 | 98 | 1019.0 |
| 20260831135210 | 67 | 81 | 0.0 | 0.0 | 0.16 | 0.00 | 0.29 | 98 | 1019.0 |
| 20260831134709 | 67 | 83 | 0.0 | 0.0 | 0.13 | 0.00 | 0.25 | 98 | 1019.0 |
| 20260831134211 | 67 | 80 | 0.0 | 0.0 | 0.13 | 0.00 | 0.25 | 98 | 1019.0 |
| 20260831133709 | 67 | 134 | 0.0 | 0.0 | 0.13 | 0.00 | 0.25 | 98 | 1019.0 |
| 20260831133212 | 67 | 103 | 0.0 | 0.0 | 0.12 | 0.00 | 0.24 | 98 | 1019.0 |
| 20260831132710 | 67 | 86 | 0.0 | 0.0 | 0.07 | 0.00 | 0.19 | 98 | 1019.0 |
| 20260831132211 | 67 | 83 | 0.0 | 0.0 | 0.07 | 0.00 | 0.19 | 98 | 1019.0 |
| 20260831131709 | 67 | 77 | 0.0 | 0.0 | 0.07 | 0.00 | 0.19 | 98 | 1019.0 |
| 20260831131209 | 67 | 73 | 0.0 | 0.0 | 0.04 | 0.00 | 0.17 | 98 | 1019.0 |
| 20260831130710 | 67 | 88 | 0.0 | 0.0 | 0.02 | 0.00 | 0.14 | 98 | 1019.0 |
| 20260831130211 | 67 | 33 | 0.0 | 0.0 | 0.01 | 0.00 | 0.13 | 98 | 1019.0 |
| 20260831125710 | 67 | 77 | 0.0 | 0.0 | 0.00 | 0.00 | 0.13 | 98 | 1019.0 |
| 20260831125209 | 67 | 78 | 0.0 | 0.0 | 0.00 | 0.00 | 0.12 | 98 | 1019.0 |
| 20260831124709 | 67 | 81 | 0.0 | 0.0 | 0.00 | 0.00 | 0.12 | 98 | 1019.0 |
| 20260831124209 | 67 | 76 | 0.0 | 0.0 | 0.00 | 0.00 | 0.12 | 98 | 1019.0 |
| 20260831123709 | 67 | 57 | 0.0 | 0.0 | 0.00 | 0.00 | 0.12 | 98 | 1019.0 |
| 20260831123209 | 67 | 78 | 0.0 | 0.0 | 0.00 | 0.00 | 0.12 | 98 | 1019.0 |
| 20260831122710 | 66 | 72 | 0.0 | 0.0 | 0.00 | 0.00 | 0.12 | 98 | 1019.0 |
| 20260831122210 | 66 | 148 | 0.0 | 0.0 | 0.00 | 0.00 | 0.12 | 98 | 1019.0 |
| 20260831121711 | 66 | 75 | 0.0 | 0.0 | 0.01 | 0.00 | 0.12 | 98 | 1019.0 |
| 20260831121209 | 66 | 213 | 0.0 | 0.0 | 0.01 | 0.00 | 0.12 | 98 | 1019.0 |
| 20260831120710 | 66 | 178 | 0.0 | 0.0 | 0.01 | 0.00 | 0.12 | 98 | 1019.0 |
| 20260831120209 | 66 | 43 | 0.0 | 0.0 | 0.01 | 0.00 | 0.12 | 98 | 1019.0 |
| 20260831115709 | 66 | 92 | 0.0 | 0.0 | 0.01 | 0.00 | 0.12 | 98 | 1019.0 |
| 20260831115209 | 66 | 91 | 0.0 | 0.0 | 0.02 | 0.00 | 0.12 | 98 | 1019.0 |
| 20260831114710 | 66 | 82 | 0.0 | 0.0 | 0.02 | 0.00 | 0.12 | 98 | 1019.0 |
| 20260831114209 | 66 | 146 | 0.0 | 0.0 | 0.02 | 0.00 | 0.12 | 98 | 1019.0 |
| 20260831113709 | 66 | 138 | 0.0 | 0.0 | 0.03 | 0.00 | 0.12 | 98 | 1019.0 |
| 20260831113210 | 66 | 259 | 0.0 | 0.0 | 0.03 | 0.00 | 0.12 | 98 | 1019.0 |
| 20260831112712 | 66 | 70 | 0.0 | 0.0 | 0.03 | 0.00 | 0.12 | 98 | 1019.0 |
| 20260831112210 | 66 | 75 | 0.0 | 0.0 | 0.03 | 0.00 | 0.12 | 98 | 1019.0 |
| 20260831111711 | 66 | 91 | 0.0 | 0.0 | 0.02 | 0.00 | 0.11 | 98 | 1019.0 |
| 20260831111210 | 66 | 85 | 0.0 | 0.0 | 0.02 | 0.00 | 0.11 | 98 | 1019.0 |
| 20260831110710 | 66 | 93 | 0.0 | 0.0 | 0.02 | 0.00 | 0.11 | 98 | 1019.0 |
| 20260831110209 | 67 | 85 | 0.0 | 0.0 | 0.02 | 0.00 | 0.11 | 98 | 1019.0 |
| 20260831105710 | 67 | 62 | 0.0 | 0.0 | 0.01 | 0.00 | 0.11 | 98 | 1019.0 |
| 20260831105210 | 67 | 74 | 0.0 | 0.0 | 0.01 | 0.00 | 0.10 | 98 | 1019.0 |
| 20260831104710 | 67 | 91 | 0.0 | 0.0 | 0.01 | 0.00 | 0.10 | 98 | 1019.0 |
| 20260831104209 | 67 | 83 | 0.0 | 0.0 | 0.00 | 0.00 | 0.10 | 98 | 1019.0 |
| 20260831103710 | 67 | 77 | 0.0 | 0.0 | 0.00 | 0.00 | 0.09 | 98 | 1019.0 |
| 20260831103210 | 66 | 76 | 0.0 | 0.0 | 0.00 | 0.00 | 0.09 | 98 | 1019.0 |
| 20260831102709 | 67 | 84 | 0.0 | 0.0 | 0.00 | 0.00 | 0.09 | 98 | 1019.0 |
| 20260831102209 | 67 | 85 | 0.0 | 0.0 | 0.00 | 0.00 | 0.09 | 98 | 1019.0 |
| 20260831101709 | 67 | 72 | 0.0 | 0.0 | 0.00 | 0.00 | 0.09 | 98 | 1019.0 |
| 20260831101209 | 66 | 62 | 0.0 | 0.0 | 0.00 | 0.00 | 0.09 | 98 | 1019.0 |
| 20260831100709 | 66 | 94 | 0.0 | 0.0 | 0.00 | 0.00 | 0.09 | 98 | 1019.0 |
| 20260831100209 | 66 | 94 | 0.0 | 0.0 | 0.00 | 0.00 | 0.09 | 98 | 1020.0 |
| 20260831095710 | 66 | 98 | 0.0 | 0.0 | 0.00 | 0.00 | 0.09 | 98 | 1020.0 |
| 20260831095209 | 66 | 81 | 0.0 | 0.0 | 0.00 | 0.00 | 0.09 | 98 | 1020.0 |
| 20260831094709 | 66 | 84 | 0.0 | 0.0 | 0.00 | 0.00 | 0.09 | 98 | 1019.0 |
| 20260831094209 | 67 | 65 | 0.0 | 0.0 | 0.00 | 0.00 | 0.09 | 98 | 1019.0 |
| 20260831093710 | 67 | 110 | 0.0 | 0.0 | 0.01 | 0.00 | 0.09 | 98 | 1019.0 |
| 20260831093209 | 67 | 69 | 0.0 | 0.0 | 0.01 | 0.00 | 0.09 | 98 | 1019.0 |
| 20260831092710 | 67 | 71 | 0.0 | 0.0 | 0.02 | 0.00 | 0.09 | 98 | 1019.0 |
| 20260831092210 | 67 | 116 | 0.0 | 0.0 | 0.02 | 0.00 | 0.09 | 98 | 1019.0 |
| 20260831091710 | 67 | 77 | 0.0 | 0.0 | 0.02 | 0.00 | 0.09 | 98 | 1019.0 |
| 20260831091210 | 67 | 80 | 0.0 | 0.0 | 0.02 | 0.00 | 0.09 | 98 | 1019.0 |
| 20260831090712 | 67 | 78 | 0.0 | 0.0 | 0.02 | 0.00 | 0.09 | 98 | 1019.0 |
| 20260831090210 | 67 | 44 | 0.0 | 0.0 | 0.02 | 0.00 | 0.09 | 98 | 1019.0 |
| 20260831085709 | 67 | 35 | 0.0 | 0.0 | 0.02 | 0.00 | 0.09 | 98 | 1019.0 |
| 20260831085209 | 67 | 101 | 0.0 | 0.0 | 0.02 | 0.00 | 0.09 | 98 | 1020.0 |
| 20260831084711 | 67 | 159 | 0.0 | 0.0 | 0.02 | 0.00 | 0.09 | 98 | 1020.0 |
| 20260831084209 | 67 | 63 | 0.0 | 0.0 | 0.01 | 0.00 | 0.09 | 98 | 1020.0 |
| 20260831083710 | 67 | 108 | 0.0 | 0.0 | 0.01 | 0.00 | 0.08 | 98 | 1020.0 |
| 20260831083210 | 67 | 146 | 0.0 | 0.0 | 0.01 | 0.00 | 0.08 | 98 | 1020.0 |
| 20260831082710 | 67 | 85 | 0.0 | 0.0 | 0.01 | 0.00 | 0.07 | 98 | 1020.0 |
| 20260831082209 | 67 | 56 | 0.0 | 0.0 | 0.01 | 0.00 | 0.07 | 98 | 1020.0 |
| 20260831081709 | 67 | 138 | 0.0 | 0.0 | 0.01 | 0.00 | 0.07 | 98 | 1020.0 |
| 20260831081210 | 67 | 71 | 0.0 | 0.0 | 0.03 | 0.00 | 0.07 | 98 | 1020.0 |
| 20260831080709 | 67 | 152 | 0.0 | 0.0 | 0.04 | 0.00 | 0.07 | 98 | 1020.0 |
| 20260831080209 | 67 | 67 | 0.0 | 0.0 | 0.04 | 0.00 | 0.07 | 98 | 1020.0 |
| 20260831075710 | 67 | 156 | 0.0 | 0.0 | 0.04 | 0.00 | 0.07 | 97 | 1020.0 |
| 20260831075209 | 67 | 59 | 0.0 | 0.0 | 0.05 | 0.00 | 0.07 | 98 | 1020.0 |
| 20260831074709 | 67 | 138 | 0.0 | 0.0 | 0.05 | 0.00 | 0.07 | 97 | 1020.0 |
| 20260831074209 | 67 | 116 | 0.0 | 0.0 | 0.05 | 0.00 | 0.07 | 97 | 1020.0 |
| 20260831073709 | 67 | 135 | 0.0 | 0.0 | 0.05 | 0.00 | 0.07 | 97 | 1020.0 |
| 20260831073210 | 67 | 116 | 0.0 | 0.0 | 0.05 | 0.00 | 0.07 | 97 | 1020.0 |
| 20260831072709 | 67 | 78 | 0.0 | 0.0 | 0.04 | 0.00 | 0.06 | 97 | 1020.0 |
| 20260831072209 | 67 | 57 | 0.0 | 0.0 | 0.04 | 0.00 | 0.06 | 97 | 1020.0 |
| 20260831071709 | 67 | 83 | 0.0 | 0.0 | 0.04 | 0.00 | 0.06 | 97 | 1020.0 |
| 20260831071210 | 67 | 54 | 0.0 | 0.0 | 0.03 | 0.00 | 0.05 | 97 | 1020.0 |
| 20260831070710 | 67 | 69 | 0.0 | 0.0 | 0.02 | 0.00 | 0.03 | 97 | 1020.0 |
| 20260831070210 | 67 | 68 | 0.0 | 0.0 | 0.02 | 0.00 | 0.03 | 97 | 1020.0 |
| 20260831065709 | 67 | 73 | 0.0 | 0.0 | 0.01 | 0.00 | 0.03 | 97 | 1020.0 |
| 20260831065210 | 67 | 76 | 0.0 | 0.0 | 0.01 | 0.00 | 0.02 | 97 | 1020.0 |
| 20260831064710 | 67 | 80 | 0.0 | 0.0 | 0.01 | 0.00 | 0.02 | 97 | 1020.0 |
| 20260831064213 | 67 | 86 | 0.0 | 0.0 | 0.01 | 0.00 | 0.02 | 97 | 1020.0 |
| 20260831063711 | 67 | 104 | 0.0 | 0.0 | 0.01 | 0.00 | 0.02 | 97 | 1020.0 |
| 20260831063210 | 68 | 137 | 0.0 | 0.0 | 0.01 | 0.00 | 0.02 | 97 | 1020.0 |
| 20260831062712 | 67 | 79 | 0.0 | 0.0 | 0.01 | 0.00 | 0.02 | 97 | 1020.0 |
| 20260831062209 | 67 | 331 | 0.0 | 0.0 | 0.01 | 0.00 | 0.02 | 97 | 1020.0 |
| 20260831061710 | 67 | 85 | 0.0 | 0.0 | 0.00 | 0.00 | 0.01 | 97 | 1020.0 |
| 20260831061210 | 68 | 66 | 0.0 | 0.0 | 0.00 | 0.00 | 0.01 | 97 | 1020.0 |
| 20260831060709 | 67 | 71 | 0.0 | 0.0 | 0.00 | 0.00 | 0.01 | 97 | 1021.0 |
| 20260831060209 | 68 | 70 | 0.0 | 0.0 | 0.00 | 0.00 | 0.01 | 97 | 1021.0 |
| 20260831055711 | 68 | 83 | 0.0 | 0.0 | 0.00 | 0.00 | 0.01 | 97 | 1021.0 |
| 20260831055209 | 67 | 94 | 0.0 | 0.0 | 0.00 | 0.00 | 0.01 | 97 | 1021.0 |
| 20260831054709 | 68 | 83 | 0.0 | 0.0 | 0.00 | 0.00 | 0.01 | 97 | 1021.0 |
| 20260831054209 | 68 | 64 | 0.0 | 0.0 | 0.00 | 0.00 | 0.01 | 97 | 1021.0 |
| 20260831053709 | 68 | 72 | 0.0 | 0.0 | 0.00 | 0.00 | 0.01 | 97 | 1021.0 |
| 20260831053210 | 68 | 69 | 0.0 | 0.0 | 0.00 | 0.00 | 0.01 | 97 | 1021.0 |
| 20260831052709 | 68 | 106 | 0.0 | 0.0 | 0.00 | 0.00 | 0.01 | 97 | 1021.0 |
| 20260831052211 | 68 | 73 | 0.0 | 0.0 | 0.01 | 0.00 | 0.01 | 97 | 1021.0 |
| 20260831051710 | 68 | 67 | 0.0 | 0.0 | 0.01 | 0.00 | 0.01 | 97 | 1021.0 |
| 20260831051210 | 68 | 60 | 0.0 | 0.0 | 0.01 | 0.00 | 0.01 | 97 | 1021.0 |
| 20260831050710 | 68 | 60 | 0.0 | 0.0 | 0.01 | 0.00 | 0.01 | 97 | 1021.0 |
| 20260831050209 | 67 | 80 | 0.0 | 0.0 | 0.01 | 0.00 | 0.01 | 97 | 1021.0 |
| 20260831045710 | 67 | 76 | 0.0 | 0.0 | 0.01 | 0.00 | 0.01 | 97 | 1021.0 |
| 20260831045209 | 68 | 73 | 0.0 | 0.0 | 0.01 | 0.00 | 0.01 | 97 | 1020.0 |
| 20260831044710 | 68 | 65 | 0.0 | 0.0 | 0.02 | 0.00 | 0.01 | 97 | 1021.0 |
| 20260831044210 | 67 | 98 | 0.0 | 0.0 | 0.02 | 0.00 | 0.01 | 97 | 1021.0 |
| 20260831043710 | 68 | 106 | 0.0 | 0.0 | 0.02 | 0.00 | 0.01 | 97 | 1021.0 |
| 20260831043209 | 68 | 263 | 0.0 | 0.0 | 0.02 | 0.00 | 0.01 | 97 | 1021.0 |
| 20260831042710 | 68 | 76 | 0.0 | 0.0 | 0.02 | 0.00 | 0.01 | 97 | 1020.0 |
| 20260831042209 | 68 | 153 | 0.0 | 0.0 | 0.01 | 0.00 | 0.00 | 97 | 1020.0 |
| 20260831041716 | 68 | 107 | 0.0 | 0.0 | 0.01 | 0.00 | 0.00 | 97 | 1021.0 |
| 20260831041210 | 68 | 203 | 0.0 | 0.0 | 0.01 | 0.00 | 0.00 | 97 | 1021.0 |
| 20260831040709 | 68 | 273 | 0.0 | 0.0 | 0.01 | 0.00 | 0.00 | 97 | 1021.0 |
| 20260831040209 | 68 | 143 | 0.0 | 0.0 | 0.02 | 0.00 | 0.18 | 97 | 1021.0 |
| 20260831035709 | 68 | 98 | 0.0 | 0.0 | 0.02 | 0.00 | 0.18 | 97 | 1021.0 |
| 20260831035210 | 68 | 70 | 0.0 | 0.0 | 0.01 | 0.00 | 0.18 | 96 | 1021.0 |
| 20260831034709 | 68 | 82 | 0.0 | 0.0 | 0.01 | 0.00 | 0.17 | 96 | 1021.0 |
| 20260831034209 | 68 | 20 | 0.0 | 0.0 | 0.01 | 0.00 | 0.17 | 96 | 1021.0 |
| 20260831033710 | 68 | 110 | 0.0 | 0.0 | 0.01 | 0.00 | 0.17 | 96 | 1021.0 |
| 20260831033209 | 68 | 93 | 0.0 | 0.0 | 0.01 | 0.00 | 0.17 | 96 | 1021.0 |
| 20260831032710 | 68 | 105 | 0.0 | 0.0 | 0.01 | 0.00 | 0.17 | 96 | 1021.0 |
| 20260831032210 | 68 | 67 | 0.0 | 0.0 | 0.01 | 0.00 | 0.17 | 96 | 1021.0 |
| 20260831031710 | 68 | 83 | 0.0 | 0.0 | 0.01 | 0.00 | 0.17 | 96 | 1021.0 |
| 20260831031210 | 68 | 73 | 0.0 | 0.0 | 0.02 | 0.00 | 0.17 | 96 | 1021.0 |
| 20260831030709 | 68 | 146 | 0.0 | 0.0 | 0.02 | 0.00 | 0.16 | 96 | 1021.0 |
| 20260831030209 | 67 | 350 | 0.0 | 0.0 | 0.03 | 0.00 | 0.16 | 96 | 1021.0 |
| 20260831025709 | 67 | 126 | 0.0 | 0.0 | 0.06 | 0.00 | 0.16 | 96 | 1021.0 |
| 20260831025209 | 67 | 148 | 0.0 | 0.0 | 0.07 | 0.00 | 0.16 | 96 | 1021.0 |
| 20260831024710 | 67 | 72 | 0.0 | 0.0 | 0.08 | 0.00 | 0.16 | 96 | 1021.0 |
| 20260831024209 | 67 | 70 | 0.0 | 0.0 | 0.10 | 0.00 | 0.16 | 96 | 1021.0 |
| 20260831023710 | 67 | 129 | 0.0 | 0.0 | 0.10 | 0.00 | 0.16 | 96 | 1021.0 |
| 20260831023210 | 67 | 62 | 0.0 | 0.0 | 0.10 | 0.00 | 0.16 | 95 | 1021.0 |
| 20260831022709 | 67 | 48 | 0.0 | 0.0 | 0.10 | 0.00 | 0.16 | 96 | 1021.0 |
| 20260831022210 | 67 | 36 | 0.0 | 0.0 | 0.10 | 0.00 | 0.16 | 95 | 1021.0 |
| 20260831021709 | 67 | 115 | 0.0 | 0.0 | 0.10 | 0.00 | 0.16 | 95 | 1021.0 |
| 20260831021209 | 66 | 62 | 0.0 | 0.0 | 0.09 | 0.00 | 0.15 | 95 | 1021.0 |
| 20260831020709 | 66 | 78 | 0.0 | 0.0 | 0.08 | 0.00 | 0.14 | 95 | 1021.0 |
| 20260831020209 | 66 | 74 | 0.0 | 0.0 | 0.06 | 0.00 | 0.12 | 95 | 1021.0 |
| 20260831015709 | 66 | 75 | 0.0 | 0.0 | 0.04 | 0.00 | 0.10 | 95 | 1021.0 |
| 20260831015209 | 66 | 78 | 0.0 | 0.0 | 0.02 | 0.00 | 0.09 | 95 | 1021.0 |
| 20260831014711 | 66 | 76 | 0.0 | 0.0 | 0.01 | 0.00 | 0.08 | 95 | 1021.0 |
| 20260831014209 | 66 | 50 | 0.0 | 0.0 | 0.00 | 0.00 | 0.06 | 94 | 1021.0 |
| 20260831013709 | 66 | 51 | 0.0 | 0.0 | 0.00 | 0.00 | 0.06 | 94 | 1021.0 |
| 20260831013209 | 66 | 62 | 0.0 | 0.0 | 0.00 | 0.00 | 0.06 | 94 | 1021.0 |
| 20260831012709 | 66 | 167 | 0.0 | 0.0 | 0.00 | 0.00 | 0.06 | 94 | 1021.0 |
| 20260831012209 | 66 | 143 | 0.0 | 0.0 | 0.00 | 0.00 | 0.06 | 94 | 1021.0 |
| 20260831011710 | 66 | 65 | 0.0 | 0.0 | 0.00 | 0.00 | 0.06 | 94 | 1021.0 |
| 20260831011210 | 66 | 126 | 0.0 | 0.0 | 0.00 | 0.00 | 0.06 | 94 | 1021.0 |
| 20260831010710 | 66 | 74 | 0.0 | 0.0 | 0.00 | 0.00 | 0.06 | 94 | 1021.0 |
| 20260831010209 | 66 | 85 | 0.0 | 0.0 | 0.00 | 0.00 | 0.06 | 94 | 1021.0 |
| 20260831005710 | 66 | 91 | 0.0 | 0.0 | 0.00 | 0.00 | 0.06 | 94 | 1021.0 |
| 20260831005209 | 66 | 162 | 0.0 | 0.0 | 0.00 | 0.00 | 0.06 | 94 | 1021.0 |
| 20260831004709 | 66 | 60 | 0.0 | 0.0 | 0.00 | 0.00 | 0.06 | 94 | 1021.0 |
| 20260831004211 | 66 | 103 | 0.0 | 0.0 | 0.00 | 0.00 | 0.06 | 94 | 1021.0 |
| 20260831003709 | 66 | 333 | 0.0 | 0.0 | 0.00 | 0.00 | 0.06 | 94 | 1021.0 |
| 20260831003209 | 66 | 114 | 0.0 | 0.0 | 0.00 | 0.00 | 0.06 | 94 | 1020.0 |
| 20260831002709 | 66 | 54 | 0.0 | 0.0 | 0.00 | 0.00 | 0.06 | 93 | 1020.0 |
| 20260831002209 | 66 | 58 | 0.0 | 0.0 | 0.00 | 0.00 | 0.06 | 93 | 1020.0 |
| 20260831001709 | 66 | 55 | 0.0 | 0.0 | 0.00 | 0.00 | 0.06 | 93 | 1020.0 |
| 20260831001209 | 66 | 117 | 0.0 | 0.0 | 0.00 | 0.00 | 0.06 | 93 | 1020.0 |
| 20260831000709 | 67 | 65 | 0.0 | 0.0 | 0.00 | 0.00 | 0.06 | 93 | 1020.0 |
| 20260831000211 | 66 | 63 | 0.0 | 0.0 | 0.00 | 0.00 | 0.06 | 93 | 1020.0 |
| 20260830235709 | 66 | 63 | 0.0 | 0.0 | 0.00 | 0.00 | 0.06 | 93 | 1020.0 |
| 20260830235210 | 66 | 122 | 0.0 | 0.0 | 0.01 | 0.00 | 0.06 | 92 | 1020.0 |
| 20260830234710 | 67 | 66 | 0.0 | 0.0 | 0.01 | 0.00 | 0.06 | 92 | 1020.0 |
| 20260830234210 | 66 | 62 | 0.0 | 0.0 | 0.01 | 0.00 | 0.06 | 92 | 1020.0 |
| 20260830233709 | 67 | 104 | 0.0 | 0.0 | 0.01 | 0.00 | 0.06 | 92 | 1020.0 |
| 20260830233209 | 67 | 63 | 0.0 | 0.0 | 0.02 | 0.00 | 0.06 | 92 | 1020.0 |
| 20260830232709 | 67 | 64 | 0.0 | 0.0 | 0.02 | 0.00 | 0.06 | 92 | 1020.0 |
| 20260830232209 | 67 | 78 | 0.0 | 0.0 | 0.02 | 0.00 | 0.06 | 92 | 1020.0 |
| 20260830231709 | 67 | 85 | 0.0 | 0.0 | 0.02 | 0.00 | 0.06 | 91 | 1020.0 |
| 20260830231210 | 67 | 82 | 0.0 | 0.0 | 0.02 | 0.00 | 0.06 | 91 | 1020.0 |
| 20260830230709 | 67 | 73 | 0.0 | 0.0 | 0.02 | 0.00 | 0.06 | 91 | 1020.0 |
| 20260830230209 | 67 | 56 | 0.0 | 0.0 | 0.02 | 0.00 | 0.06 | 90 | 1020.0 |
| 20260830225709 | 67 | 60 | 0.0 | 0.0 | 0.01 | 0.00 | 0.05 | 90 | 1020.0 |
| 20260830225209 | 67 | 148 | 0.0 | 0.0 | 0.01 | 0.00 | 0.05 | 90 | 1020.0 |
| 20260830224710 | 67 | 62 | 0.0 | 0.0 | 0.01 | 0.00 | 0.05 | 90 | 1020.0 |
| 20260830224209 | 67 | 87 | 0.0 | 0.0 | 0.01 | 0.00 | 0.05 | 90 | 1020.0 |
| 20260830223709 | 67 | 54 | 0.0 | 0.0 | 0.01 | 0.00 | 0.05 | 89 | 1020.0 |
| 20260830223209 | 68 | 47 | 0.0 | 0.0 | 0.00 | 0.00 | 0.04 | 89 | 1020.0 |
| 20260830222709 | 68 | 64 | 0.0 | 0.0 | 0.00 | 0.00 | 0.04 | 89 | 1020.0 |
| 20260830222210 | 68 | 62 | 0.0 | 0.0 | 0.00 | 0.00 | 0.04 | 88 | 1020.0 |
| 20260830221709 | 68 | 14 | 0.0 | 0.0 | 0.00 | 0.00 | 0.04 | 88 | 1020.0 |
| 20260830221209 | 68 | 24 | 0.0 | 0.0 | 0.00 | 0.00 | 0.04 | 87 | 1020.0 |
| 20260830220709 | 68 | 58 | 0.0 | 0.0 | 0.00 | 0.00 | 0.04 | 87 | 1020.0 |
| 20260830220209 | 68 | 28 | 0.0 | 0.0 | 0.00 | 0.00 | 0.04 | 86 | 1020.0 |
| 20260830215709 | 68 | 56 | 0.0 | 0.0 | 0.00 | 0.00 | 0.04 | 86 | 1020.0 |
| 20260830215209 | 68 | 24 | 0.0 | 0.0 | 0.00 | 0.00 | 0.04 | 85 | 1020.0 |
| 20260830214709 | 68 | 106 | 0.0 | 1.0 | 0.00 | 0.00 | 0.04 | 85 | 1020.0 |
| 20260830214209 | 68 | 61 | 0.0 | 0.0 | 0.00 | 0.00 | 0.04 | 85 | 1020.0 |
| 20260830213709 | 68 | 352 | 0.0 | 0.0 | 0.00 | 0.00 | 0.04 | 84 | 1020.0 |
| 20260830213209 | 68 | 45 | 0.0 | 0.0 | 0.00 | 0.00 | 0.04 | 84 | 1020.0 |
| 20260830212709 | 68 | 36 | 0.0 | 1.0 | 0.00 | 0.00 | 0.04 | 84 | 1020.0 |
| 20260830212209 | 68 | 38 | 1.0 | 2.0 | 0.00 | 0.00 | 0.04 | 83 | 1020.0 |
| 20260830211709 | 68 | 97 | 0.0 | 0.0 | 0.00 | 0.00 | 0.04 | 83 | 1020.0 |
| 20260830211210 | 68 | 3 | 0.0 | 2.0 | 0.00 | 0.00 | 0.04 | 83 | 1020.0 |
| 20260830210710 | 68 | 53 | 1.0 | 2.0 | 0.00 | 0.00 | 0.04 | 83 | 1020.0 |
| 20260830210216 | 68 | 175 | 0.0 | 0.0 | 0.00 | 0.00 | 0.04 | 84 | 1020.0 |
| 20260830205709 | 68 | 133 | 0.0 | 2.0 | 0.00 | 0.00 | 0.04 | 84 | 1020.0 |
| 20260830205209 | 68 | 172 | 2.0 | 2.0 | 0.00 | 0.00 | 0.04 | 84 | 1020.0 |
| 20260830204711 | 68 | 78 | 0.0 | 0.0 | 0.00 | 0.00 | 0.04 | 85 | 1020.0 |
| 20260830204212 | 68 | 47 | 0.0 | 0.0 | 0.00 | 0.00 | 0.04 | 84 | 1020.0 |
| 20260830203710 | 68 | 45 | 0.0 | 0.0 | 0.00 | 0.00 | 0.04 | 85 | 1021.0 |
| 20260830203209 | 68 | 30 | 0.0 | 1.0 | 0.00 | 0.00 | 0.04 | 84 | 1020.0 |
| 20260830202709 | 68 | 41 | 0.0 | 2.0 | 0.00 | 0.00 | 0.04 | 85 | 1020.0 |
| 20260830202209 | 68 | 47 | 0.0 | 4.0 | 0.00 | 0.00 | 0.04 | 85 | 1021.0 |
| 20260830201710 | 68 | 42 | 0.0 | 1.0 | 0.00 | 0.00 | 0.04 | 86 | 1021.0 |
| 20260830201209 | 68 | 47 | 0.0 | 0.0 | 0.00 | 0.00 | 0.04 | 86 | 1021.0 |
| 20260830200709 | 68 | 56 | 2.0 | 2.0 | 0.00 | 0.00 | 0.04 | 86 | 1021.0 |
| 20260830200209 | 68 | 187 | 0.0 | 0.0 | 0.00 | 0.00 | 0.04 | 86 | 1021.0 |
| 20260830195709 | 68 | 128 | 0.0 | 0.0 | 0.00 | 0.00 | 0.04 | 86 | 1021.0 |
| 20260830195213 | 68 | 58 | 0.0 | 0.0 | 0.00 | 0.00 | 0.04 | 86 | 1021.0 |
| 20260830194709 | 68 | 71 | 0.0 | 0.0 | 0.00 | 0.00 | 0.04 | 86 | 1021.0 |
| 20260830194210 | 68 | 243 | 2.0 | 3.0 | 0.00 | 0.00 | 0.04 | 86 | 1021.0 |
| 20260830193709 | 68 | 51 | 1.0 | 4.0 | 0.00 | 0.00 | 0.04 | 87 | 1021.0 |
| 20260830193209 | 68 | 29 | 0.0 | 3.0 | 0.00 | 0.00 | 0.04 | 87 | 1021.0 |
| 20260830192710 | 68 | 14 | 3.0 | 3.0 | 0.01 | 0.00 | 0.04 | 87 | 1021.0 |
| 20260830192209 | 68 | 56 | 0.0 | 0.0 | 0.01 | 0.00 | 0.04 | 88 | 1021.0 |
| 20260830191710 | 68 | 33 | 0.0 | 0.0 | 0.01 | 0.00 | 0.04 | 88 | 1021.0 |
| 20260830191209 | 68 | 58 | 0.0 | 3.0 | 0.02 | 0.00 | 0.04 | 88 | 1021.0 |
| 20260830190710 | 68 | 344 | 0.0 | 1.0 | 0.02 | 0.00 | 0.04 | 88 | 1021.0 |
| 20260830190210 | 68 | 31 | 0.0 | 0.0 | 0.02 | 0.00 | 0.04 | 89 | 1021.0 |
| 20260830185711 | 68 | 357 | 0.0 | 0.0 | 0.02 | 0.00 | 0.04 | 89 | 1021.0 |
| 20260830185209 | 68 | 20 | 0.0 | 0.0 | 0.02 | 0.00 | 0.04 | 88 | 1021.0 |
| 20260830184710 | 68 | 302 | 1.0 | 1.0 | 0.02 | 0.00 | 0.04 | 88 | 1021.0 |
| 20260830184209 | 68 | 80 | 0.0 | 0.0 | 0.02 | 0.00 | 0.04 | 88 | 1021.0 |
| 20260830183709 | 68 | 13 | 3.0 | 5.0 | 0.02 | 0.00 | 0.04 | 88 | 1021.0 |
| 20260830183209 | 68 | 87 | 0.0 | 2.0 | 0.02 | 0.00 | 0.04 | 88 | 1021.0 |
| 20260830182709 | 68 | 19 | 0.0 | 3.0 | 0.01 | 0.00 | 0.03 | 87 | 1021.0 |
| 20260830182209 | 69 | 344 | 0.0 | 4.0 | 0.01 | 0.00 | 0.03 | 86 | 1021.0 |
| 20260830181710 | 69 | 240 | 1.0 | 4.0 | 0.01 | 0.00 | 0.03 | 86 | 1021.0 |
| 20260830181209 | 69 | 36 | 2.0 | 3.0 | 0.00 | 0.00 | 0.02 | 85 | 1021.0 |
| 20260830180709 | 70 | 4 | 4.0 | 4.0 | 0.00 | 0.00 | 0.02 | 85 | 1021.0 |
| 20260830180212 | 70 | 7 | 0.0 | 1.0 | 0.00 | 0.00 | 0.02 | 84 | 1021.0 |
| 20260830175710 | 70 | 21 | 1.0 | 2.0 | 0.00 | 0.00 | 0.02 | 84 | 1021.0 |
| 20260830175210 | 70 | 29 | 0.0 | 1.0 | 0.00 | 0.00 | 0.02 | 84 | 1021.0 |
| 20260830174709 | 70 | 58 | 0.0 | 2.0 | 0.00 | 0.00 | 0.02 | 84 | 1021.0 |
| 20260830174209 | 70 | 74 | 2.0 | 2.0 | 0.00 | 0.00 | 0.02 | 83 | 1021.0 |
| 20260830173709 | 71 | 235 | 1.0 | 2.0 | 0.00 | 0.00 | 0.02 | 83 | 1021.0 |
| 20260830173209 | 70 | 141 | 2.0 | 3.0 | 0.00 | 0.00 | 0.02 | 82 | 1021.0 |
| 20260830172710 | 71 | 65 | 0.0 | 2.0 | 0.00 | 0.00 | 0.02 | 83 | 1021.0 |
| 20260830172212 | 71 | 45 | 0.0 | 2.0 | 0.00 | 0.00 | 0.02 | 83 | 1021.0 |
| 20260830171714 | 71 | 354 | 0.0 | 0.0 | 0.00 | 0.00 | 0.02 | 83 | 1021.0 |
| 20260830171209 | 71 | 130 | 1.0 | 1.0 | 0.00 | 0.00 | 0.02 | 83 | 1021.0 |
| 20260830170709 | 71 | 186 | 0.0 | 0.0 | 0.00 | 0.00 | 0.02 | 83 | 1021.0 |
| 20260830170209 | 71 | 35 | 1.0 | 2.0 | 0.00 | 0.00 | 0.02 | 84 | 1021.0 |
| 20260830165710 | 71 | 59 | 0.0 | 0.0 | 0.00 | 0.00 | 0.02 | 84 | 1021.0 |
| 20260830165209 | 71 | 37 | 0.0 | 0.0 | 0.00 | 0.00 | 0.02 | 84 | 1021.0 |
| 20260830164709 | 71 | 24 | 0.0 | 0.0 | 0.00 | 0.00 | 0.02 | 83 | 1021.0 |
| 20260830164209 | 71 | 124 | 0.0 | 0.0 | 0.00 | 0.00 | 0.02 | 84 | 1021.0 |
| 20260830163710 | 71 | 131 | 0.0 | 0.0 | 0.00 | 0.00 | 0.02 | 85 | 1021.0 |
| 20260830163209 | 70 | 36 | 0.0 | 2.0 | 0.00 | 0.00 | 0.02 | 86 | 1021.0 |
| 20260830162709 | 70 | 24 | 0.0 | 0.0 | 0.00 | 0.00 | 0.02 | 88 | 1021.0 |
| 20260830162209 | 69 | 52 | 0.0 | 0.0 | 0.01 | 0.00 | 0.02 | 89 | 1021.0 |
| 20260830161712 | 69 | 56 | 0.0 | 0.0 | 0.01 | 0.00 | 0.02 | 91 | 1021.0 |
| 20260830161209 | 69 | 59 | 0.0 | 0.0 | 0.02 | 0.00 | 0.02 | 91 | 1021.0 |
| 20260830160709 | 68 | 128 | 0.0 | 0.0 | 0.02 | 0.00 | 0.02 | 91 | 1021.0 |
| 20260830160211 | 68 | 41 | 0.0 | 0.0 | 0.02 | 0.00 | 0.02 | 92 | 1021.0 |
| 20260830155710 | 68 | 314 | 0.0 | 0.0 | 0.02 | 0.00 | 0.02 | 91 | 1021.0 |
| 20260830155209 | 68 | 137 | 0.0 | 0.0 | 0.02 | 0.00 | 0.02 | 91 | 1021.0 |
| 20260830154709 | 67 | 86 | 0.0 | 0.0 | 0.02 | 0.00 | 0.02 | 91 | 1021.0 |
| 20260830154209 | 67 | 52 | 0.0 | 1.0 | 0.02 | 0.00 | 0.02 | 91 | 1022.0 |
| 20260830153710 | 67 | 50 | 0.0 | 1.0 | 0.02 | 0.00 | 0.02 | 91 | 1022.0 |
| 20260830153209 | 67 | 328 | 0.0 | 2.0 | 0.02 | 0.00 | 0.02 | 91 | 1022.0 |
| 20260830152709 | 67 | 148 | 0.0 | 0.0 | 0.02 | 0.00 | 0.02 | 90 | 1022.0 |
| 20260830152209 | 68 | 303 | 3.0 | 4.0 | 0.01 | 0.00 | 0.01 | 90 | 1022.0 |